Weather History for Cincinnati, OH

Change the Weather History Date:

Tuesday, January 1, 2013

  Actual Average Record
Temperature  
Mean Temperature 32 °F -  
Max Temperature 35 °F 39 °F 71 °F (1952)
Min Temperature 28 °F 25 °F -4 °F (1968)
Degree Days  
Heating Degree Days 34    
Moisture  
Dew Point 29 °F    
Average Humidity 87    
Maximum Humidity 100    
Minimum Humidity 69    
Precipitation  
Precipitation 0.00 in - - ()
Sea Level Pressure  
Sea Level Pressure 30.11 in    
Wind  
Wind Speed 4 mph (NNW)    
Max Wind Speed 13 mph    
Max Gust Speed -    
Visibility 6 miles    
Events Snow    
Averages and records for this station are not official NWS values.
T = Trace of Precipitation, MM = Missing Value Source: NWS Daily Summary

Daily Weather History Graph

Daily Weather History Graph

Search for Another Location

Airport:

Trip Planner

Search our weather history database for the weather conditions in past years. The results will help you decide how hot, cold, wet, or windy it might be!

Date:

Astronomy

Jan. 01, 2013 Rise Set
Actual Time 7:56 AM EST 5:26 PM EST
Civil Twilight 7:27 AM EST 5:56 PM EST
Nautical Twilight 6:53 AM EST 6:29 PM EST
Astronomical Twilight 6:21 AM EST 7:01 PM EST
Moon 9:53 PM EST 10:10 AM EST
Length of Visible Light 10h 28m
Length of Day
9h 29m
Waning Gibbous, 83% of the Moon is Illuminated
Jan 1
Waning Gibbous
Jan 4
Last Quarter
Jan 11
New
Jan 18
First Quarter
Jan 26
Full

Hourly Weather History & Observations

Time (EST) Temp. Windchill Dew Point Humidity Pressure Visibility Wind Dir Wind Speed Gust Speed Precip Events Conditions
12:02 AM 33.8 °F 28.6 °F 32.0 °F 93% 30.11 in 3.0 mi SSW 5.8 mph - 0.00 in Snow Light Snow
12:21 AM 33.8 °F 29.6 °F 32.0 °F 93% 30.10 in 4.0 mi South 4.6 mph - 0.00 in Snow Light Snow
12:46 AM 33.8 °F - 32.0 °F 93% 30.08 in 3.0 mi Calm Calm - 0.00 in   Overcast
12:53 AM 33.1 °F - 32.0 °F 96% 30.10 in 4.0 mi Calm Calm - 0.00 in Snow Light Snow
1:53 AM 33.1 °F - 33.1 °F 100% 30.09 in 3.0 mi Calm Calm - 0.00 in   Overcast
2:10 AM 32.0 °F - 32.0 °F 100% 30.07 in 2.5 mi Calm Calm - N/A   Overcast
2:53 AM 32.0 °F - 32.0 °F 100% 30.07 in 2.5 mi Calm Calm - 0.00 in   Overcast
2:57 AM 32.0 °F - 32.0 °F 100% 30.06 in 1.8 mi Calm Calm - 0.00 in   Overcast
3:09 AM 32.0 °F - 32.0 °F 100% 30.06 in 2.0 mi Calm Calm - 0.00 in   Overcast
3:26 AM 32.0 °F - 32.0 °F 100% 30.07 in 3.0 mi Calm Calm - 0.00 in   Overcast
3:39 AM 32.0 °F - 32.0 °F 100% 30.07 in 2.0 mi Calm Calm - 0.00 in   Overcast
3:53 AM 32.0 °F - 32.0 °F 100% 30.09 in 2.5 mi Calm Calm - 0.00 in   Overcast
4:37 AM 32.0 °F 28.7 °F 32.0 °F 100% 30.07 in 1.5 mi SSE 3.5 mph - N/A   Overcast
4:50 AM 33.8 °F 30.8 °F 33.8 °F 100% 30.07 in 2.5 mi South 3.5 mph - N/A   Overcast
4:53 AM 33.1 °F 30.0 °F 33.1 °F 100% 30.09 in 2.5 mi SSW 3.5 mph - N/A   Overcast
5:11 AM 33.8 °F - 33.8 °F 100% 30.08 in 3.0 mi Calm Calm - N/A   Overcast
5:53 AM 33.1 °F - 33.1 °F 100% 30.09 in 5.0 mi Calm Calm - N/A   Overcast
6:09 AM 33.8 °F - 33.8 °F 100% 30.08 in 5.0 mi Calm Calm - N/A   Overcast
6:31 AM 33.8 °F - 32.0 °F 93% 30.08 in 6.0 mi Calm Calm - N/A   Overcast
6:53 AM 34.0 °F - 32.0 °F 92% 30.10 in 7.0 mi Calm Calm - N/A   Overcast
7:53 AM 33.8 °F 29.6 °F 30.2 °F 87% 30.11 in 9.0 mi WNW 4.6 mph - N/A   Overcast
8:53 AM 34.0 °F 31.0 °F 32.0 °F 92% 30.12 in 7.0 mi NW 3.5 mph - N/A   Overcast
9:43 AM 33.8 °F - 30.2 °F 87% 30.09 in 8.0 mi Calm Calm - N/A   Overcast
9:53 AM 34.0 °F 29.8 °F 30.9 °F 89% 30.11 in 9.0 mi North 4.6 mph - N/A   Overcast
10:44 AM 33.8 °F 28.6 °F 30.2 °F 87% 30.11 in 9.0 mi North 5.8 mph - N/A   Overcast
10:53 AM 34.0 °F 28.0 °F 30.9 °F 89% 30.12 in 9.0 mi North 6.9 mph - N/A   Overcast
11:53 AM 35.1 °F 30.1 °F 30.0 °F 82% 30.14 in 10.0 mi NNW 5.8 mph - N/A   Overcast
12:48 PM 33.8 °F 24.8 °F 30.2 °F 87% 30.09 in 3.0 mi North 12.7 mph - N/A   Overcast
12:53 PM 33.1 °F 23.9 °F 30.0 °F 89% 30.10 in 3.0 mi North 12.7 mph - N/A   Overcast
1:53 PM 33.1 °F 25.5 °F 28.0 °F 82% 30.11 in 3.0 mi North 9.2 mph - N/A   Haze
2:19 PM 33.8 °F 26.4 °F 26.6 °F 75% 30.10 in 5.0 mi North 9.2 mph - N/A   Haze
2:53 PM 33.1 °F 26.1 °F 26.1 °F 75% 30.10 in 6.0 mi North 8.1 mph - N/A   Haze
3:53 PM 33.1 °F 26.9 °F 25.0 °F 72% 30.12 in 6.0 mi NNW 6.9 mph - N/A   Haze
4:53 PM 32.0 °F 24.8 °F 24.1 °F 73% 30.12 in 7.0 mi NNW 8.1 mph - N/A   Mostly Cloudy
5:16 PM 32.0 °F 25.6 °F 24.8 °F 75% 30.11 in 7.0 mi North 6.9 mph - N/A   Overcast
5:41 PM 32.0 °F 23.6 °F 24.8 °F 75% 30.11 in 9.0 mi North 10.4 mph - N/A   Overcast
5:53 PM 30.9 °F 24.3 °F 24.1 °F 76% 30.13 in 9.0 mi NNW 6.9 mph - N/A   Overcast
6:00 PM 30.2 °F 23.4 °F 24.8 °F 80% 30.12 in 9.0 mi North 6.9 mph - N/A   Overcast
6:14 PM 30.2 °F 21.3 °F 23.0 °F 75% 30.11 in 9.0 mi North 10.4 mph - N/A   Overcast
6:53 PM 30.9 °F 27.5 °F 21.9 °F 69% 30.14 in 10.0 mi North 3.5 mph - N/A   Overcast
7:53 PM 30.0 °F 24.1 °F 21.9 °F 72% 30.15 in 10.0 mi North 5.8 mph - N/A   Overcast
8:53 PM 30.0 °F 24.1 °F 21.0 °F 69% 30.16 in 10.0 mi NNE 5.8 mph - N/A   Overcast
9:53 PM 30.0 °F 23.2 °F 21.0 °F 69% 30.18 in 10.0 mi North 6.9 mph - N/A   Overcast
10:53 PM 28.9 °F 22.8 °F 21.0 °F 72% 30.17 in 9.0 mi North 5.8 mph - N/A   Overcast
11:53 PM 28.0 °F 21.7 °F 19.9 °F 72% 30.19 in 9.0 mi North 5.8 mph - N/A   Clear